Regional Weather Roundup
Issued by NWS

Home | Current Version | Previous Version | Graphics & Text | Print | Product List | Glossary On
Versions: 1 2 3 4 5 6 7 8 9 10 11 12 13 14 15 16 17 18 19 20 21 22 23 24 25 26 27 28 29 30 31 32 33 34 35 36 37 38 39 40 41 42 43 44 45 46 47 48 49 50
000
ASUS43 KDMX 211801
RWRIA

WEATHER ROUNDUP FOR IOWA
NATIONAL WEATHER SERVICE DES MOINES IA
1200 PM CST WED FEB 21 2018

NOTE: "FAIR" INDICATES FEW OR NO CLOUDS BELOW 12,000 FEET WITH NO
SIGNIFICANT WEATHER AND/OR OBSTRUCTIONS TO VISIBILITY.

* - THESE STATIONS ARE NOT NWS STATIONS...THUS NOT UNDER NWS
QUALITY CONTROL.  THEY ALSO DO NOT REPORT WEATHER SUCH
AS PRECIPITATION OR FOG.

IAZ001>003-012>014-020>022-031>034-043>046-211900-
   NORTHWEST IOWA

CITY           SKY/WX    TMP DP  RH WIND       PRES   REMARKS
CARROLL *      FAIR      16   5  62 CALM      30.64S
CHEROKEE *     FAIR      17   5  59 CALM      30.64S
DENISON *      FAIR      18   5  57 CALM      30.65S
LE MARS *      FAIR      12   3  67 S5        30.65S WCI   4
ORANGE CITY *  FAIR      10   7  85 S3        30.62S
SHELDON *      FAIR      14   1  57 CALM      30.59F
SIOUX CITY     FAIR      14   5  67 E6        30.66F WCI   5
6HR MIN TEMP:  -1; 6HR MAX TEMP:  14;

SPENCER        FLURRIES  14   5  67 CALM      30.62F
6HR MIN TEMP:  -1; 6HR MAX TEMP:  15; 6HR PCP:  0.01;

STORM LAKE *   FAIR      16   5  62 CALM      30.61S
$$

IAZ055>058-069>071-079>083-090>094-211900-
   SOUTHWEST IOWA

CITY           SKY/WX    TMP DP  RH WIND       PRES   REMARKS
ATLANTIC *     FAIR      19   9  63 NE8       30.64S WCI   9
AUDUBON *      FAIR      18  10  73 CALM      30.62F
CLARINDA *     FAIR      21  12  68 NE8       30.65F WCI  12
COUNCIL BLFS * FAIR      18   9  68 NE6       30.63F WCI   9
CRESTON *      FAIR      19  12  73 NE13      30.61F WCI   7
HARLAN  *      FAIR      18   9  68 VRB5      30.67F WCI  11
LAMONI         FAIR      21  14  74 NE10      30.61R WCI  10
6HR MIN TEMP:  12; 6HR MAX TEMP:  21;

RED OAK *      FAIR      21  10  63 VRB7G13   30.65S WCI  13
SHENANDOAH *   FAIR      21  10  63 NE9       30.65F WCI  11
$$

IAZ047>049-059>061-072>074-084-211900-
   CENTRAL IOWA

CITY           SKY/WX    TMP DP  RH WIND       PRES   REMARKS
AMES           FAIR      20  11  68 VRB5      30.65S WCI  13
6HR MIN TEMP:  11; 6HR MAX TEMP:  20;

ANKENY *       FAIR      19  12  73 N9        30.66F WCI   9
BOONE *        FAIR      18  10  73 MISG      30.63S
CHARITON *     FAIR      19  16  86 N7        30.62F WCI  10
DES MOINES     CLOUDY    21  12  68 N8        30.64S WCI  11
6HR MIN TEMP:  12; 6HR MAX TEMP:  21;

GRINNELL*      FAIR      20  14  78 N10       30.63S WCI   9
KNOXVILLE *    FAIR      19  10  68 N9        30.63S WCI   9
MARSHALLTOWN   FAIR      19  11  70 N10       30.64R WCI   7
6HR MIN TEMP:  11; 6HR MAX TEMP:  19;

NEWTON *       FAIR      21  14  73 N12       30.63S WCI   9
PELLA *        FAIR      22  15  74 N5        30.66R WCI  15
$$

IAZ004>006-015-016-023>025-035-036-211900-
   NORTH CENTRAL IOWA

CITY           SKY/WX    TMP DP  RH WIND       PRES   REMARKS
CLARION *      FAIR      16   7  67 CALM      30.65R
ESTHERVILLE    FAIR      13   4  67 W3        30.61F
6HR MIN TEMP:   0; 6HR MAX TEMP:  13;

FORT DODGE *   FAIR      22   9  57 W5        30.65R WCI  16
MASON CITY     FAIR      17   7  64 CALM      30.64S
6HR MIN TEMP:   4; 6HR MAX TEMP:  17;

FOREST CITY *  FAIR      19  10  68 W5        30.63R WCI  13
WEBSTER CITY * FAIR      16   7  67 CALM      30.63S
IOWA FALLS *   FAIR      19  10  69 CALM      30.65R
$$

IAZ007>011-017>019-026>030-037>042-050>054-066-211900-
   NORTHEAST IOWA

CITY           SKY/WX    TMP DP  RH WIND       PRES   REMARKS
CEDAR RAPIDS   FAIR      22   9  57 N13       30.61R WCI  10
6HR MIN TEMP:  15; 6HR MAX TEMP:  23;

CHARLES CITY * FAIR      18   9  68 NW8       30.63S WCI   7
DECORAH *      FAIR      18   7  62 N9        30.60F WCI   6
DUBUQUE        FAIR      20   8  60 N10       30.59S WCI   9
6HR MIN TEMP:  15; 6HR MAX TEMP:  20;

MONTICELLO *   FAIR      21  12  68 N8        30.62R WCI  12
OELWEIN *      FAIR      18  10  73 N8        30.63S WCI   7
WATERLOO       FAIR      20  10  65 VRB7      30.65R WCI  11
6HR MIN TEMP:  10; 6HR MAX TEMP:  20;

$$

IAZ064-065-067-068-078-211900-
   EAST CENTRAL IOWA

CITY           SKY/WX    TMP DP  RH WIND       PRES   REMARKS
DAVENPORT      FAIR      25  14  63 N10       30.62R WCI  15
6HR MIN TEMP:  21; 6HR MAX TEMP:  26;

IOWA CITY      FAIR      24  10  55 N10       30.64R WCI  14
6HR MIN TEMP:  18; 6HR MAX TEMP:  25;

MT. PLEASANT * FAIR      25  16  68 N10       30.62R WCI  15
MUSCATINE *    FAIR      25  14  63 N7        30.64R WCI  17
QUAD CITIES    FAIR      27  16  63 N6        30.60R WCI  20
6HR MIN TEMP:  21; 6HR MAX TEMP:  27;

$$

IAZ062-063-075>077-085>089-095>099-211900-
   SOUTHEAST IOWA

CITY           SKY/WX    TMP DP  RH WIND       PRES   REMARKS
BURLINGTON     FAIR      26  16  65 N8        30.60R WCI  18
6HR MIN TEMP:  20; 6HR MAX TEMP:  26;

FAIRFIELD *    FAIR      23  12  63 N12       30.62R WCI  12
FORT MADISON * FAIR      25  18  74 N10       30.61R WCI  15
KEOKUK *       FAIR      27  19  74 MISG      30.60R
OSKALOOSA *    FAIR      21  15  79 N8        30.64S WCI  11
OTTUMWA        FAIR      23  15  71 N10       30.63R WCI  12
6HR MIN TEMP:  16; 6HR MAX TEMP:  23;

WASHINGTON *   FAIR      23  16  74 N12       30.64R WCI  12
$$

ABBREVIATIONS USED IN REMARKS
   TC - TEMPERATURES IN CELSIUS
  WCI - WIND CHILL INDEX
   HX - HEAT INDEX
  VSB - VISIBILITY
$$





USA.gov is the U.S. government's official web portal to all federal, state and local government web resources and services.